Time,TemperatureF,DewpointF,PressureIn,WindDirection,WindDirectionDegrees,WindSpeedMPH,WindSpeedGustMPH,Humidity,HourlyPrecipIn,Conditions,Clouds,dailyrainin,SoftwareType,DateUTC
2013-02-14 00:05:00,158.0,0.0,30.03,North,5,12.0,12.0,0,0.00,,---,0.00,VWS V14.00,2013-02-14 06:05:00,
2013-02-14 00:15:00,158.0,0.0,30.03,NNE,15,10.0,13.0,0,0.00,,---,0.00,VWS V14.00,2013-02-14 06:15:00,
2013-02-14 00:25:00,158.0,0.0,30.02,North,5,10.0,13.0,0,0.00,,---,0.00,VWS V14.00,2013-02-14 06:25:00,
2013-02-14 00:35:00,158.0,0.0,30.03,North,5,12.0,15.0,0,0.00,,---,0.00,VWS V14.00,2013-02-14 06:35:00,
2013-02-14 00:45:00,158.0,0.0,30.03,North,355,11.0,14.0,0,0.00,,---,0.00,VWS V14.00,2013-02-14 06:45:00,
2013-02-14 00:55:00,158.0,0.0,30.02,North,5,13.0,15.0,0,0.00,,---,0.00,VWS V14.00,2013-02-14 06:55:00,
2013-02-14 01:05:00,158.0,0.0,30.01,North,360,13.0,16.0,0,0.00,,---,0.00,VWS V14.00,2013-02-14 07:05:00,
2013-02-14 01:15:00,158.0,0.0,30.01,North,9,15.0,16.0,0,0.00,,---,0.00,VWS V14.00,2013-02-14 07:15:00,
2013-02-14 01:25:00,158.0,0.0,30.01,NNW,346,17.0,17.0,0,0.00,,---,0.00,VWS V14.00,2013-02-14 07:25:00,
2013-02-14 01:35:00,158.0,0.0,30.01,North,360,14.0,17.0,0,0.00,,---,0.00,VWS V14.00,2013-02-14 07:35:00,
2013-02-14 01:45:00,158.0,0.0,30.01,North,355,12.0,16.0,0,0.00,,---,0.00,VWS V14.00,2013-02-14 07:45:00,
2013-02-14 01:55:00,158.0,0.0,30.01,North,360,11.0,15.0,0,0.00,,---,0.00,VWS V14.00,2013-02-14 07:55:00,
2013-02-14 02:05:00,158.0,0.0,30.01,North,360,12.0,14.0,0,0.00,,---,0.00,VWS V14.00,2013-02-14 08:05:00,
2013-02-14 02:15:00,158.0,0.0,30.01,North,9,13.0,17.0,0,0.00,,---,0.00,VWS V14.00,2013-02-14 08:15:00,
2013-02-14 02:25:00,158.0,0.0,30.01,North,355,13.0,15.0,0,0.00,,---,0.00,VWS V14.00,2013-02-14 08:25:00,
2013-02-14 02:35:00,158.0,0.0,30.03,North,355,11.0,14.0,0,0.00,,---,0.00,VWS V14.00,2013-02-14 08:35:00,
2013-02-14 02:45:00,158.0,0.0,30.02,North,355,12.0,14.0,0,0.00,,---,0.00,VWS V14.00,2013-02-14 08:45:00,
2013-02-14 02:55:00,158.0,0.0,30.02,North,360,11.0,15.0,0,0.00,,---,0.00,VWS V14.00,2013-02-14 08:55:00,
2013-02-14 03:05:00,158.0,0.0,30.02,North,355,12.0,14.0,0,0.00,,---,0.00,VWS V14.00,2013-02-14 09:05:00,
2013-02-14 03:15:00,158.0,0.0,30.02,NNW,346,12.0,14.0,0,0.00,,---,0.00,VWS V14.00,2013-02-14 09:15:00,
2013-02-14 03:25:00,158.0,0.0,30.02,NNW,348,13.0,15.0,0,0.00,,---,0.00,VWS V14.00,2013-02-14 09:25:00,
2013-02-14 03:35:00,158.0,0.0,30.03,NNW,338,12.0,15.0,0,0.00,,---,0.00,VWS V14.00,2013-02-14 09:35:00,
2013-02-14 03:45:00,158.0,0.0,30.04,NNW,340,13.0,16.0,0,0.00,,---,0.00,VWS V14.00,2013-02-14 09:45:00,
2013-02-14 03:55:00,158.0,0.0,30.02,NNW,348,13.0,17.0,0,0.00,,---,0.00,VWS V14.00,2013-02-14 09:55:00,
2013-02-14 04:05:00,158.0,0.0,30.01,NNW,330,14.0,17.0,0,0.00,,---,0.00,VWS V14.00,2013-02-14 10:05:00,
2013-02-14 04:15:00,158.0,0.0,30.01,NNW,345,13.0,19.0,0,0.00,,---,0.00,VWS V14.00,2013-02-14 10:15:00,
2013-02-14 04:25:00,158.0,0.0,30.02,NNW,338,16.0,19.0,0,0.00,,---,0.00,VWS V14.00,2013-02-14 10:25:00,
2013-02-14 04:35:00,158.0,0.0,30.01,NNW,334,17.0,19.0,0,0.00,,---,0.00,VWS V14.00,2013-02-14 10:35:00,
2013-02-14 04:45:00,158.0,0.0,30.02,NNW,343,15.0,19.0,0,0.00,,---,0.00,VWS V14.00,2013-02-14 10:45:00,
2013-02-14 04:55:00,158.0,0.0,30.03,NNW,344,16.0,18.0,0,0.00,,---,0.00,VWS V14.00,2013-02-14 10:55:00,
2013-02-14 05:05:00,158.0,0.0,30.04,NNW,340,14.0,19.0,0,0.00,,---,0.00,VWS V14.00,2013-02-14 11:05:00,
2013-02-14 05:15:00,158.0,0.0,30.04,North,355,11.0,17.0,0,0.00,,---,0.00,VWS V14.00,2013-02-14 11:15:00,
2013-02-14 05:25:00,158.0,0.0,30.05,NNE,15,11.0,15.0,0,0.00,,---,0.00,VWS V14.00,2013-02-14 11:25:00,
2013-02-14 05:35:00,158.0,0.0,30.05,North,9,13.0,14.0,0,0.00,,---,0.00,VWS V14.00,2013-02-14 11:35:00,
2013-02-14 05:45:00,158.0,0.0,30.05,North,355,14.0,14.0,0,0.00,,---,0.00,VWS V14.00,2013-02-14 11:45:00,
2013-02-14 05:55:00,158.0,0.0,30.05,North,5,11.0,14.0,0,0.00,,---,0.00,VWS V14.00,2013-02-14 11:55:00,
2013-02-14 06:05:00,158.0,0.0,30.06,NNE,18,11.0,14.0,0,0.00,,---,0.00,VWS V14.00,2013-02-14 12:05:00,
2013-02-14 06:15:00,158.0,0.0,30.06,NNE,12,11.0,14.0,0,0.00,,---,0.00,VWS V14.00,2013-02-14 12:15:00,
2013-02-14 06:25:00,158.0,0.0,30.06,NNE,12,11.0,14.0,0,0.00,,---,0.00,VWS V14.00,2013-02-14 12:25:00,
2013-02-14 06:35:00,158.0,0.0,30.06,North,5,8.0,13.0,0,0.00,,---,0.00,VWS V14.00,2013-02-14 12:35:00,
2013-02-14 06:45:00,158.0,0.0,30.07,North,5,11.0,14.0,0,0.00,,---,0.00,VWS V14.00,2013-02-14 12:45:00,
2013-02-14 06:55:00,158.0,0.0,30.07,North,5,12.0,16.0,0,0.00,,---,0.00,VWS V14.00,2013-02-14 12:55:00,
2013-02-14 07:05:00,158.0,0.0,30.07,North,5,12.0,16.0,0,0.00,,---,0.00,VWS V14.00,2013-02-14 13:05:00,
2013-02-14 07:15:00,158.0,0.0,30.08,North,5,11.0,15.0,0,0.00,,---,0.00,VWS V14.00,2013-02-14 13:15:00,
2013-02-14 07:25:00,158.0,0.0,30.09,North,9,11.0,14.0,0,0.00,,---,0.00,VWS V14.00,2013-02-14 13:25:00,
2013-02-14 07:35:00,158.0,0.0,30.09,North,5,11.0,14.0,0,0.00,,---,0.00,VWS V14.00,2013-02-14 13:35:00,
2013-02-14 07:45:00,158.0,0.0,30.11,NNE,13,10.0,14.0,0,0.00,,---,0.00,VWS V14.00,2013-02-14 13:45:00,
2013-02-14 07:55:00,158.0,0.0,30.12,North,360,11.0,14.0,0,0.00,,---,0.00,VWS V14.00,2013-02-14 13:55:00,
2013-02-14 08:05:00,158.0,0.0,30.11,North,355,11.0,12.0,0,0.00,,---,0.00,VWS V14.00,2013-02-14 14:05:00,
2013-02-14 08:15:00,158.0,0.0,30.11,NNE,15,13.0,14.0,0,0.00,,---,0.00,VWS V14.00,2013-02-14 14:15:00,
2013-02-14 08:25:00,158.0,0.0,30.11,North,5,11.0,14.0,0,0.00,,---,0.00,VWS V14.00,2013-02-14 14:25:00,
2013-02-14 08:35:00,158.0,0.0,30.10,North,360,12.0,15.0,0,0.00,,---,0.00,VWS V14.00,2013-02-14 14:35:00,
2013-02-14 08:45:00,158.0,0.0,30.11,North,360,10.0,15.0,0,0.00,,---,0.00,VWS V14.00,2013-02-14 14:45:00,
2013-02-14 08:55:00,158.0,0.0,30.11,North,351,11.0,13.0,0,0.00,,---,0.00,VWS V14.00,2013-02-14 14:55:00,
2013-02-14 09:05:00,158.0,0.0,30.11,NNE,12,12.0,13.0,0,0.00,,---,0.00,VWS V14.00,2013-02-14 15:05:00,
2013-02-14 09:15:00,158.0,0.0,30.11,NNE,12,10.0,14.0,0,0.00,,---,0.00,VWS V14.00,2013-02-14 15:15:00,
2013-02-14 09:25:00,158.0,0.0,30.12,North,5,6.0,13.0,0,0.00,,---,0.00,VWS V14.00,2013-02-14 15:25:00,
2013-02-14 09:35:00,158.0,0.0,30.12,North,10,10.0,13.0,0,0.00,,---,0.00,VWS V14.00,2013-02-14 15:35:00,
2013-02-14 09:45:00,158.0,0.0,30.12,NNE,18,7.0,13.0,0,0.00,,---,0.00,VWS V14.00,2013-02-14 15:45:00,
2013-02-14 09:55:00,158.0,0.0,30.13,NNW,346,10.0,13.0,0,0.00,,---,0.00,VWS V14.00,2013-02-14 15:55:00,
2013-02-14 10:05:00,158.0,0.0,30.13,North,9,10.0,13.0,0,0.00,,---,0.00,VWS V14.00,2013-02-14 16:05:00,
2013-02-14 10:15:00,158.0,0.0,30.12,North,9,10.0,12.0,0,0.00,,---,0.00,VWS V14.00,2013-02-14 16:15:00,
2013-02-14 10:25:00,158.0,0.0,30.11,NE,38,5.0,11.0,0,0.00,,---,0.00,VWS V14.00,2013-02-14 16:25:00,
2013-02-14 10:35:00,158.0,0.0,30.11,NE,53,6.0,12.0,0,0.00,,---,0.00,VWS V14.00,2013-02-14 16:35:00,
2013-02-14 10:45:00,158.0,0.0,30.11,ENE,65,5.0,11.0,0,0.00,,---,0.00,VWS V14.00,2013-02-14 16:45:00,
2013-02-14 10:55:00,158.0,0.0,30.10,NE,36,5.0,9.0,0,0.00,,---,0.00,VWS V14.00,2013-02-14 16:55:00,
2013-02-14 11:05:00,158.0,0.0,30.11,NE,42,2.0,7.0,0,0.00,,---,0.00,VWS V14.00,2013-02-14 17:05:00,
2013-02-14 11:15:00,158.0,0.0,30.11,NNE,20,4.0,8.0,0,0.00,,---,0.00,VWS V14.00,2013-02-14 17:15:00,
2013-02-14 11:25:00,158.0,0.0,30.10,NE,48,4.0,10.0,0,0.00,,---,0.00,VWS V14.00,2013-02-14 17:25:00,
2013-02-14 11:35:00,158.0,0.0,30.09,NNE,17,5.0,7.0,0,0.00,,---,0.00,VWS V14.00,2013-02-14 17:35:00,
2013-02-14 11:45:00,158.0,0.0,30.09,NNE,17,6.0,10.0,0,0.00,,---,0.00,VWS V14.00,2013-02-14 17:45:00,
2013-02-14 11:55:00,158.0,0.0,30.08,NNW,333,5.0,10.0,0,0.00,,---,0.00,VWS V14.00,2013-02-14 17:55:00,
2013-02-14 12:05:00,158.0,0.0,30.09,NW,321,5.0,10.0,0,0.00,,---,0.00,VWS V14.00,2013-02-14 18:05:00,
2013-02-14 12:15:00,158.0,0.0,30.08,NW,316,7.0,10.0,0,0.00,,---,0.00,VWS V14.00,2013-02-14 18:15:00,
2013-02-14 12:25:00,158.0,0.0,30.08,NW,316,7.0,11.0,0,0.00,,---,0.00,VWS V14.00,2013-02-14 18:25:00,
2013-02-14 12:35:00,158.0,0.0,30.08,NW,307,9.0,10.0,0,0.00,,---,0.00,VWS V14.00,2013-02-14 18:35:00,
2013-02-14 12:45:00,158.0,0.0,30.07,WNW,302,7.0,10.0,0,0.00,,---,0.00,VWS V14.00,2013-02-14 18:45:00,
2013-02-14 12:55:00,158.0,0.0,30.07,West,277,6.0,10.0,0,0.00,,---,0.00,VWS V14.00,2013-02-14 18:55:00,
2013-02-14 13:05:00,158.0,0.0,30.05,WNW,302,6.0,11.0,0,0.00,,---,0.00,VWS V14.00,2013-02-14 19:05:00,
2013-02-14 13:15:00,158.0,0.0,30.05,WNW,292,9.0,11.0,0,0.00,,---,0.00,VWS V14.00,2013-02-14 19:15:00,
2013-02-14 13:25:00,158.0,0.0,30.04,WNW,300,9.0,12.0,0,0.00,,---,0.00,VWS V14.00,2013-02-14 19:25:00,
2013-02-14 13:35:00,158.0,0.0,30.04,NW,306,10.0,12.0,0,0.00,,---,0.00,VWS V14.00,2013-02-14 19:35:00,
2013-02-14 13:45:00,158.0,0.0,30.04,WNW,287,10.0,12.0,0,0.00,,---,0.00,VWS V14.00,2013-02-14 19:45:00,
2013-02-14 13:55:00,158.0,0.0,30.03,West,281,11.0,12.0,0,0.00,,---,0.00,VWS V14.00,2013-02-14 19:55:00,
2013-02-14 14:05:00,158.0,0.0,30.03,WNW,290,8.0,11.0,0,0.00,,---,0.00,VWS V14.00,2013-02-14 20:05:00,
2013-02-14 14:15:00,158.0,0.0,30.03,West,281,7.0,10.0,0,0.00,,---,0.00,VWS V14.00,2013-02-14 20:15:00,
2013-02-14 14:25:00,158.0,0.0,30.04,West,279,7.0,10.0,0,0.00,,---,0.00,VWS V14.00,2013-02-14 20:25:00,
2013-02-14 14:35:00,158.0,0.0,30.04,West,273,6.0,10.0,0,0.00,,---,0.00,VWS V14.00,2013-02-14 20:35:00,
2013-02-14 14:45:00,158.0,0.0,30.03,West,273,7.0,9.0,0,0.00,,---,0.00,VWS V14.00,2013-02-14 20:45:00,
2013-02-14 14:55:00,158.0,0.0,30.03,West,273,6.0,7.0,0,0.00,,---,0.00,VWS V14.00,2013-02-14 20:55:00,
2013-02-14 15:05:00,158.0,0.0,30.02,WNW,286,6.0,7.0,0,0.00,,---,0.00,VWS V14.00,2013-02-14 21:05:00,
2013-02-14 15:15:00,158.0,0.0,30.02,WNW,293,8.0,9.0,0,0.00,,---,0.00,VWS V14.00,2013-02-14 21:15:00,
2013-02-14 15:25:00,158.0,0.0,30.02,WNW,296,7.0,9.0,0,0.00,,---,0.00,VWS V14.00,2013-02-14 21:25:00,
2013-02-14 15:35:00,158.0,0.0,30.02,WNW,296,8.0,9.0,0,0.00,,---,0.00,VWS V14.00,2013-02-14 21:35:00,
2013-02-14 15:45:00,158.0,0.0,30.01,NW,304,6.0,9.0,0,0.00,,---,0.00,VWS V14.00,2013-02-14 21:45:00,
2013-02-14 15:55:00,158.0,0.0,30.01,NW,305,5.0,7.0,0,0.00,,---,0.00,VWS V14.00,2013-02-14 21:55:00,
2013-02-14 16:05:00,158.0,0.0,30.01,NW,316,5.0,7.0,0,0.00,,---,0.00,VWS V14.00,2013-02-14 22:05:00,
2013-02-14 16:15:00,158.0,0.0,30.01,NNW,336,7.0,9.0,0,0.00,,---,0.00,VWS V14.00,2013-02-14 22:15:00,
2013-02-14 16:25:00,158.0,0.0,30.01,NNW,336,7.0,11.0,0,0.00,,---,0.00,VWS V14.00,2013-02-14 22:25:00,
2013-02-14 16:35:00,158.0,0.0,30.01,NNW,346,9.0,11.0,0,0.00,,---,0.00,VWS V14.00,2013-02-14 22:35:00,
2013-02-14 16:45:00,158.0,0.0,30.01,NNW,348,10.0,11.0,0,0.00,,---,0.00,VWS V14.00,2013-02-14 22:45:00,
2013-02-14 16:55:00,158.0,0.0,30.01,NNW,339,7.0,11.0,0,0.00,,---,0.00,VWS V14.00,2013-02-14 22:55:00,
2013-02-14 17:05:00,158.0,0.0,30.01,NNW,338,11.0,11.0,0,0.00,,---,0.00,VWS V14.00,2013-02-14 23:05:00,
2013-02-14 17:15:00,158.0,0.0,30.01,NNW,348,11.0,13.0,0,0.00,,---,0.00,VWS V14.00,2013-02-14 23:15:00,
2013-02-14 17:25:00,158.0,0.0,30.01,North,360,10.0,12.0,0,0.00,,---,0.00,VWS V14.00,2013-02-14 23:25:00,
2013-02-14 17:35:00,158.0,0.0,30.02,North,5,9.0,11.0,0,0.00,,---,0.00,VWS V14.00,2013-02-14 23:35:00,
2013-02-14 17:45:00,158.0,0.0,30.02,North,11,9.0,11.0,0,0.00,,---,0.00,VWS V14.00,2013-02-14 23:45:00,
2013-02-14 17:55:00,158.0,0.0,30.02,North,5,8.0,11.0,0,0.00,,---,0.00,VWS V14.00,2013-02-14 23:55:00,
2013-02-14 18:05:00,158.0,0.0,30.02,North,5,10.0,10.0,0,0.00,,---,0.00,VWS V14.00,2013-02-15 00:05:00,
2013-02-14 18:15:00,158.0,0.0,30.03,NNE,22,7.0,10.0,0,0.00,,---,0.00,VWS V14.00,2013-02-15 00:15:00,
2013-02-14 18:25:00,158.0,0.0,30.03,NNE,22,6.0,8.0,0,0.00,,---,0.00,VWS V14.00,2013-02-15 00:25:00,
2013-02-14 18:35:00,158.0,0.0,30.04,NNE,31,7.0,8.0,0,0.00,,---,0.00,VWS V14.00,2013-02-15 00:35:00,
2013-02-14 18:45:00,158.0,0.0,30.04,NE,37,6.0,8.0,0,0.00,,---,0.00,VWS V14.00,2013-02-15 00:45:00,
2013-02-14 18:55:00,158.0,0.0,30.04,NE,40,7.0,10.0,0,0.00,,---,0.00,VWS V14.00,2013-02-15 00:55:00,
2013-02-14 19:05:00,158.0,0.0,30.04,NE,42,8.0,10.0,0,0.00,,---,0.00,VWS V14.00,2013-02-15 01:05:00,
2013-02-14 19:15:00,158.0,0.0,30.05,NE,39,7.0,9.0,0,0.00,,---,0.00,VWS V14.00,2013-02-15 01:15:00,
2013-02-14 19:25:00,158.0,0.0,30.05,NNE,33,8.0,11.0,0,0.00,,---,0.00,VWS V14.00,2013-02-15 01:25:00,
2013-02-14 19:35:00,158.0,0.0,30.05,NNE,29,8.0,11.0,0,0.00,,---,0.00,VWS V14.00,2013-02-15 01:35:00,
2013-02-14 19:45:00,158.0,0.0,30.05,NE,44,11.0,12.0,0,0.00,,---,0.00,VWS V14.00,2013-02-15 01:45:00,
2013-02-14 19:55:00,158.0,0.0,30.05,NE,37,9.0,12.0,0,0.00,,---,0.00,VWS V14.00,2013-02-15 01:55:00,
2013-02-14 20:05:00,158.0,0.0,30.05,NNE,26,10.0,11.0,0,0.00,,---,0.00,VWS V14.00,2013-02-15 02:05:00,
2013-02-14 20:15:00,158.0,0.0,30.06,NNE,30,9.0,12.0,0,0.00,,---,0.00,VWS V14.00,2013-02-15 02:15:00,
2013-02-14 20:25:00,158.0,0.0,30.06,NE,39,6.0,10.0,0,0.00,,---,0.00,VWS V14.00,2013-02-15 02:25:00,
2013-02-14 20:35:00,158.0,0.0,30.06,NE,46,10.0,11.0,0,0.00,,---,0.00,VWS V14.00,2013-02-15 02:35:00,
2013-02-14 20:45:00,158.0,0.0,30.06,NE,53,7.0,10.0,0,0.00,,---,0.00,VWS V14.00,2013-02-15 02:45:00,
2013-02-14 20:55:00,158.0,0.0,30.06,NE,53,9.0,10.0,0,0.00,,---,0.00,VWS V14.00,2013-02-15 02:55:00,
2013-02-14 21:05:00,158.0,0.0,30.06,NE,53,7.0,9.0,0,0.00,,---,0.00,VWS V14.00,2013-02-15 03:05:00,
2013-02-14 21:15:00,158.0,0.0,30.06,NE,53,5.0,7.0,0,0.00,,---,0.00,VWS V14.00,2013-02-15 03:15:00,
2013-02-14 21:25:00,158.0,0.0,30.06,NE,53,6.0,7.0,0,0.00,,---,0.00,VWS V14.00,2013-02-15 03:25:00,
2013-02-14 21:35:00,158.0,0.0,30.06,NE,53,5.0,7.0,0,0.00,,---,0.00,VWS V14.00,2013-02-15 03:35:00,
2013-02-14 21:45:00,158.0,0.0,30.06,NE,53,4.0,7.0,0,0.00,,---,0.00,VWS V14.00,2013-02-15 03:45:00,
2013-02-14 21:55:00,158.0,0.0,30.07,NE,53,5.0,6.0,0,0.00,,---,0.00,VWS V14.00,2013-02-15 03:55:00,
2013-02-14 22:05:00,158.0,0.0,30.06,ENE,74,5.0,8.0,0,0.00,,---,0.00,VWS V14.00,2013-02-15 04:05:00,
2013-02-14 22:15:00,158.0,0.0,30.06,East,79,6.0,7.0,0,0.00,,---,0.00,VWS V14.00,2013-02-15 04:15:00,
2013-02-14 22:25:00,158.0,0.0,30.06,East,79,5.0,7.0,0,0.00,,---,0.00,VWS V14.00,2013-02-15 04:25:00,
2013-02-14 22:35:00,158.0,0.0,30.06,ENE,78,6.0,7.0,0,0.00,,---,0.00,VWS V14.00,2013-02-15 04:35:00,
2013-02-14 22:45:00,158.0,0.0,30.06,ENE,78,6.0,6.0,0,0.00,,---,0.00,VWS V14.00,2013-02-15 04:45:00,
2013-02-14 22:55:00,158.0,0.0,30.06,ENE,78,4.0,6.0,0,0.00,,---,0.00,VWS V14.00,2013-02-15 04:55:00,
2013-02-14 23:05:00,158.0,0.0,30.06,East,79,5.0,6.0,0,0.00,,---,0.00,VWS V14.00,2013-02-15 05:05:00,
2013-02-14 23:15:00,158.0,0.0,30.06,East,79,3.0,6.0,0,0.00,,---,0.00,VWS V14.00,2013-02-15 05:15:00,
2013-02-14 23:25:00,158.0,0.0,30.06,East,79,3.0,4.0,0,0.00,,---,0.00,VWS V14.00,2013-02-15 05:25:00,
2013-02-14 23:35:00,158.0,0.0,30.06,East,79,2.0,4.0,0,0.00,,---,0.00,VWS V14.00,2013-02-15 05:35:00,
2013-02-14 23:45:00,158.0,0.0,30.06,East,79,0.0,4.0,0,0.00,,---,0.00,VWS V14.00,2013-02-15 05:45:00,
2013-02-14 23:55:00,158.0,0.0,30.06,East,79,0.0,0.0,0,0.00,,---,0.00,VWS V14.00,2013-02-15 05:55:00,